Wetbulb
42.42 42.47 42.68 42.91 43.33 43.92 44.57 45.09 45.07 44.59 44.21 44.00 44.26 44.62 45.35 45.60 46.48 48.31 49.75 50.01 48.92 47.86 47.48 46.43 45.35 45.83 44.88 42.90 40.11 39.63 38.65 39.14 38.67 37.89 30.64 30.53 30.34 30.49 30.25 31.69 32.33 31.97 31.85
42.06 42.14 42.51 42.72 42.81 42.70 43.05 43.59 43.65 44.05 42.52 44.07 42.62 43.83 44.90 46.64 47.32 47.45 47.61 47.81 47.40 45.84 45.39 44.69 44.48 44.44 43.25 43.50 40.82 38.64 38.29 38.49 38.34 38.13 27.35 27.99 28.82 30.04 29.49 29.79 30.09 30.79 29.33
40.34 40.88 41.28 41.53 41.58 41.69 41.81 41.95 41.89 41.85 41.42 40.42 40.64 41.41 44.46 45.14 45.58 46.04 46.75 46.42 46.37 46.58 45.79 43.66 43.58 42.82 41.37 42.02 40.58 39.00 37.47 37.02 35.24 31.00 26.49 28.09 27.87 29.64 28.38 29.28 29.24 27.77 28.44
38.02 38.68 39.13 40.06 40.64 41.15 41.09 40.84 40.56 40.28 39.82 38.66 38.38 39.26 40.42 41.98 41.83 42.56 41.59 43.68 44.07 44.47 44.11 43.59 43.21 42.41 41.36 40.98 38.62 37.40 35.26 32.89 31.92 31.52 28.03 26.85 27.26 27.56 28.11 26.01 25.00 26.17 25.73
35.13 35.49 36.20 37.09 37.46 37.23 36.69 36.13 36.10 35.91 36.41 36.37 36.19 35.55 36.12 38.31 39.11 39.59 38.26 40.37 40.17 40.64 40.24 39.99 39.98 39.81 38.92 40.53 36.80 34.18 32.58 32.23 31.03 31.22 26.71 25.98 25.52 24.66 24.72 26.03 25.33 25.88 26.06
32.53 32.10 33.02 32.41 32.40 32.61 32.81 33.30 33.78 34.21 34.16 33.91 33.68 33.93 33.88 35.69 38.36 39.84 39.53 37.15 36.59 36.95 37.32 35.90 35.24 33.76 35.02 38.09 38.26 36.86 34.73 32.77 31.31 29.71 27.86 27.47 26.42 26.21 26.56 25.16 24.95 24.32 22.22
30.11 30.62 30.51 30.75 31.05 31.66 31.77 31.96 32.68 32.58 32.65 32.50 32.37 31.84 32.14 32.15 37.38 38.60 38.18 34.87 34.48 34.77 35.32 34.19 32.59 32.38 32.51 33.83 36.66 37.43 36.19 37.11 35.79 32.48 28.80 28.96 26.95 27.22 26.59 25.40 25.75 25.57 25.42
29.91 29.23 29.08 29.52 29.60 30.18 30.16 30.18 30.57 30.41 30.11 30.11 30.33 29.62 29.09 29.86 35.78 36.97 36.86 33.03 32.74 33.21 33.76 33.24 32.74 31.05 31.83 32.17 32.76 32.62 32.37 33.07 33.41 31.54 31.15 28.94 29.10 28.63 28.86 28.79 27.39 26.79 26.47
29.33 29.01 28.96 28.81 28.23 28.34 28.60 28.82 28.67 26.31 26.43 26.25 26.54 25.05 27.88 31.64 34.59 35.28 35.09 32.71 32.70 31.89 31.68 31.64 31.70 30.80 32.26 34.45 31.42 30.33 29.44 29.47 33.30 33.71 33.77 33.32 32.82 32.48 31.45 28.78 26.09 25.06 22.53
27.69 27.67 28.04 28.04 27.06 27.39 29.70 29.59 29.76 27.10 30.23 29.37 30.67 30.76 30.84 31.03 33.03 33.92 33.97 32.44 31.64 29.77 29.12 29.67 30.44 30.93 32.56 34.49 30.70 29.09 27.58 28.44 29.86 30.40 31.19 32.75 33.61 33.26 33.87 30.43 27.53 24.36 23.41
25.80 25.71 25.36 25.73 25.16 26.54 27.32 28.81 30.39 30.40 29.90 30.16 28.71 29.02 28.86 29.21 29.82 32.37 33.86 31.45 30.41 28.15 27.98 28.29 29.51 33.02 33.78 34.96 32.84 29.77 29.20 29.94 31.45 29.62 29.32 29.11 28.75 29.26 30.05 29.97 28.66 27.82 24.41
23.55 23.03 23.19 22.14 23.33 25.57 22.73 28.28 30.05 28.98 28.74 28.59 27.38 27.44 26.94 27.40 28.95 31.12 32.86 34.71 31.23 27.71 27.33 28.02 29.03 32.09 33.94 34.72 31.93 32.92 34.00 31.08 29.06 27.69 26.92 26.49 26.74 26.91 27.15 26.68 27.10 26.77 26.91
25.31 22.40 23.41 26.54 21.85 20.63 20.62 27.30 28.41 27.81 27.19 26.89 25.75 25.90 25.91 26.84 28.00 30.50 32.89 33.98 32.07 28.73 29.09 29.04 30.53 32.55 33.92 34.18 33.52 33.90 30.57 29.54 27.55 25.97 25.42 25.51 26.26 26.82 25.97 23.13 22.17 21.16 20.80
24.47 24.98 25.13 26.83 27.57 26.25 20.92 20.97 24.25 26.38 25.93 25.72 25.67 25.34 25.33 25.34 26.56 28.79 31.53 31.62 31.45 29.20 29.38 29.49 30.57 31.76 33.00 32.67 31.32 32.33 30.36 28.93 27.57 26.62 26.13 25.37 25.01 23.64 21.56 21.22 18.51 17.79 15.35
23.18 24.93 26.42 27.52 27.30 26.93 25.98 20.97 17.93 19.14 24.88 23.18 24.94 24.92 20.52 19.58 22.12 30.98 30.42 27.27 23.54 26.04 24.14 27.17 29.12 29.11 29.25 29.30 29.83 29.96 30.05 29.91 28.84 27.34 24.80 21.74 21.32 21.29 19.65 19.00 16.85 15.03 13.79
18.94 22.83 26.21 27.23 27.01 25.52 24.78 25.31 30.75 32.07 32.30 31.71 31.11 26.47 23.63 28.31 29.00 32.11 32.19 31.63 30.69 30.53 21.44 21.90 25.42 25.39 24.76 24.65 25.55 25.16 25.74 26.03 24.45 23.15 21.07 20.61 19.10 17.97 16.09 15.41 14.76 13.51 12.62
12.47 17.16 22.09 25.12 23.00 18.67 17.96 19.46 20.51 24.92 29.32 29.37 32.75 32.44 31.13 30.62 31.85 32.34 32.50 32.39 32.13 29.64 21.65 23.22 24.28 24.60 22.52 23.25 23.89 23.95 22.72 20.63 20.79 21.18 20.07 18.88 17.96 16.98 15.35 13.08 11.89 11.10 9.43
10.80 16.31 22.96 23.07 19.92 18.66 15.94 17.93 18.66 21.09 20.47 20.40 24.21 26.17 30.98 32.87 32.94 33.34 32.70 28.61 25.17 24.69 23.74 22.75 22.27 21.66 20.27 20.39 19.88 18.70 17.07 16.69 15.83 15.84 14.87 13.52 12.19 11.01 9.05 8.88 9.53 6.39 4.88
12.31 16.76 18.83 16.63 20.58 20.94 19.89 18.51 19.79 18.88 18.28 17.78 19.04 21.20 19.68 26.04 26.00 25.60 24.83 19.52 17.47 15.75 15.60 14.14 13.92 12.66 12.42 12.43 11.97 11.16 10.93 9.02 8.29 7.04 6.15 6.35 5.98 5.88 2.44 4.53 5.82 6.02 3.16
12.60 15.95 19.76 16.56 18.43 21.56 20.20 18.44 18.12 17.47 16.51 15.95 14.02 12.43 13.81 14.96 12.85 11.32 11.46 12.38 11.43 9.92 9.48 8.23 6.62 5.63 4.93 4.81 3.36 2.08 2.28 2.31 1.17 1.75 -0.19 -0.68 -0.05 0.54 -1.11 -1.21 0.62 0.95 -8.71
11.74 12.67 16.39 15.29 17.33 18.26 19.14 18.01 16.79 15.91 14.23 12.38 14.97 18.41 18.05 10.16 7.68 6.53 5.31 3.84 4.33 4.02 3.59 2.59 1.34 0.72 -0.72 -1.43 -1.23 -0.80 -2.44 -2.64 -6.75 -6.55 -8.30 -9.04 -9.35 -7.81 -6.37 -8.07 -14.51 -16.00 -14.13
10.74 12.65 11.77 11.82 15.18 15.47 15.04 15.03 14.28 13.25 12.28 10.84 9.03 11.63 13.85 7.48 5.63 3.65 1.32 -0.76 -1.91 -3.08 -3.85 -3.67 -4.78 -8.32 -10.02 -8.74 -9.33 -8.30 -10.40 -11.88 -15.44 -17.21 -17.47 -18.67 -19.48 -20.50 -19.17 -15.69 -14.24 -13.03 -13.62
11.55 11.95 9.74 10.15 11.28 11.98 11.53 11.51 10.95 10.03 8.67 7.82 6.97 5.66 4.39 2.78 1.72 -0.06 -2.73 -4.51 -4.92 -5.99 -8.68 -12.00 -12.36 -13.33 -16.54 -18.20 -18.13 -14.37 -11.56 -13.35 -15.98 -21.28 -18.70 -21.53 -21.42 -21.04 -21.08 -16.62 -14.93 -12.46 -12.14
9.27 9.24 8.68 8.27 8.59 8.19 7.94 6.92 6.55 6.35 5.34 3.34 2.17 1.54 0.70 -1.07 -2.26 -2.18 -3.92 -7.38 -8.16 -11.34 -9.93 -11.29 -12.50 -12.72 -14.23 -18.72 -21.90 -25.92 -24.90 -23.36 -25.28 -22.22 -21.19 -20.51 -20.46 -20.22 -19.97 -19.37 -16.54 -13.66 -10.08
6.66 6.47 6.22 5.97 5.78 5.29 4.96 4.20 3.26 2.35 1.50 0.87 -0.91 -1.71 -3.88 -3.59 -3.90 -6.58 -10.56 -12.02 -12.38 -11.82 -11.35 -12.65 -14.05 -15.31 -17.41 -19.50 -21.46 -23.34 -22.09 -11.09 -20.55 -22.15 -26.13 -22.24 -21.62 -23.98 -23.43 -21.77 -20.42 -17.52 -14.77
4.13 3.79 3.52 3.55 2.95 2.81 2.64 1.71 0.30 -0.17 -1.28 -2.16 -3.50 -4.94 -5.66 -7.36 -9.89 -12.74 -15.13 -15.30 -13.13 -14.11 -16.75 -19.41 -20.91 -21.42 -21.09 -20.10 -19.70 -16.16 -13.24 -4.51 -12.39 -13.69 -22.62 -21.75 -22.16 -24.58 -24.63 -22.42 -22.07 -18.61 -15.49
MSLP
1016.61 1016.60 1016.46 1016.04 1015.93 1015.92 1015.91 1015.92 1015.95 1015.99 1016.02 1016.06 1016.11 1016.23 1016.30 1016.44 1016.59 1016.76 1016.82 1016.98 1017.01 1017.22 1017.51 1017.56 1017.55 1018.01 1018.21 1018.57 1018.81 1018.95 1019.08 1019.65 1019.61 1019.75 1020.80 1021.40 1021.89 1022.23 1022.73 1023.40 1024.48 1025.30 1025.63
1017.06 1016.86 1016.44 1016.01 1015.95 1015.89 1015.95 1015.93 1015.84 1015.60 1015.56 1015.63 1015.71 1015.76 1015.85 1015.98 1016.11 1016.22 1016.24 1016.30 1016.41 1016.49 1016.73 1016.83 1016.68 1017.05 1017.19 1017.54 1017.72 1018.04 1018.24 1018.53 1018.87 1019.40 1020.46 1020.83 1021.27 1021.75 1022.18 1022.76 1023.86 1024.69 1025.32
1017.47 1017.00 1016.64 1016.45 1016.40 1016.20 1015.95 1015.70 1015.54 1015.36 1015.21 1015.16 1015.21 1015.28 1015.33 1015.35 1015.44 1015.45 1015.38 1015.51 1015.51 1015.61 1015.61 1015.88 1015.97 1016.18 1016.21 1016.25 1016.67 1017.08 1017.51 1017.72 1018.31 1019.00 1019.88 1020.67 1021.10 1021.47 1022.18 1022.80 1023.44 1024.32 1024.49
1017.93 1017.56 1017.01 1016.79 1016.56 1016.29 1015.97 1015.70 1015.48 1015.34 1015.20 1014.89 1014.80 1014.74 1014.72 1014.70 1014.70 1014.75 1014.82 1014.80 1014.71 1014.73 1014.91 1014.98 1015.21 1015.39 1015.47 1015.62 1015.92 1016.07 1016.59 1017.12 1017.65 1018.40 1019.14 1019.79 1020.39 1020.98 1021.46 1022.13 1023.12 1023.46 1023.65
1017.77 1017.57 1017.49 1017.16 1016.75 1016.35 1015.95 1015.64 1015.35 1015.11 1014.94 1014.80 1014.54 1014.20 1014.03 1014.15 1014.08 1013.99 1014.04 1014.16 1014.18 1014.27 1014.32 1014.51 1014.49 1014.56 1014.66 1014.79 1015.30 1015.82 1016.30 1016.72 1017.19 1017.55 1018.35 1018.96 1019.49 1020.20 1020.38 1021.14 1021.90 1022.65 1023.17
1018.74 1018.20 1017.86 1017.57 1017.05 1016.50 1015.98 1015.61 1015.24 1014.77 1014.44 1014.36 1014.38 1014.31 1014.15 1013.89 1013.81 1013.47 1013.61 1013.70 1013.76 1013.67 1013.67 1013.79 1013.96 1014.13 1014.30 1014.47 1014.70 1014.95 1015.19 1015.66 1016.12 1016.65 1017.25 1017.62 1018.27 1018.90 1019.76 1020.59 1021.39 1022.26 1023.39
1019.17 1018.81 1018.28 1017.66 1017.33 1016.79 1016.17 1015.64 1015.19 1014.86 1014.51 1014.09 1013.80 1013.68 1013.71 1013.58 1013.52 1013.58 1013.49 1013.36 1013.38 1013.28 1013.26 1013.35 1013.65 1013.77 1014.02 1014.16 1014.18 1014.30 1014.55 1014.79 1014.95 1015.45 1016.02 1016.76 1017.58 1018.51 1019.35 1020.22 1020.68 1021.47 1022.41
1019.32 1018.91 1018.59 1018.11 1017.40 1016.95 1016.50 1015.83 1015.37 1014.95 1014.58 1014.23 1013.97 1013.51 1013.42 1013.13 1012.95 1012.96 1013.10 1013.20 1013.23 1013.11 1013.10 1013.10 1013.28 1013.36 1013.38 1013.64 1013.92 1014.13 1014.14 1014.30 1014.67 1015.16 1015.60 1016.30 1017.00 1017.95 1018.39 1019.02 1020.24 1021.39 1022.33
1019.60 1019.11 1018.65 1018.15 1017.61 1016.95 1016.27 1015.88 1015.31 1015.15 1014.92 1014.34 1013.77 1013.45 1013.33 1012.84 1012.75 1012.64 1012.61 1012.88 1013.00 1012.82 1012.76 1012.82 1013.09 1013.31 1013.21 1013.27 1013.49 1013.87 1014.51 1014.76 1015.04 1015.41 1015.76 1016.44 1017.17 1017.58 1018.36 1019.32 1020.34 1021.22 1021.93
1019.71 1019.23 1018.79 1018.38 1017.82 1017.04 1016.48 1015.67 1015.03 1014.59 1014.66 1014.41 1013.76 1013.41 1013.17 1012.68 1012.40 1012.35 1012.30 1012.06 1012.60 1013.07 1013.12 1012.72 1012.91 1013.12 1013.20 1013.12 1013.33 1013.63 1014.36 1014.71 1015.37 1015.68 1016.03 1016.51 1017.21 1017.87 1018.44 1019.11 1019.90 1020.61 1021.26
1019.57 1019.08 1018.57 1018.13 1017.73 1017.05 1016.46 1015.55 1014.97 1014.11 1014.23 1014.32 1014.01 1013.41 1013.10 1012.91 1012.34 1012.11 1011.91 1011.80 1012.11 1012.77 1013.10 1013.23 1013.04 1012.95 1013.10 1013.07 1013.28 1013.45 1013.67 1014.43 1015.24 1015.83 1016.51 1016.96 1017.67 1018.19 1018.58 1019.09 1019.64 1019.99 1020.74
1019.50 1018.94 1018.35 1017.87 1017.49 1016.98 1016.44 1015.50 1014.91 1014.59 1014.38 1014.05 1013.79 1013.43 1013.17 1013.14 1012.43 1012.26 1011.87 1011.62 1011.94 1012.51 1012.55 1012.63 1013.03 1012.87 1013.07 1013.27 1013.60 1013.76 1014.10 1014.80 1015.33 1016.24 1016.95 1017.51 1018.32 1018.55 1018.76 1019.04 1019.46 1020.00 1020.42
1019.38 1018.85 1018.19 1017.54 1017.28 1016.84 1016.45 1015.77 1015.12 1014.70 1014.46 1013.74 1014.16 1013.90 1013.02 1013.02 1012.96 1012.14 1011.75 1011.62 1012.20 1012.67 1012.61 1012.65 1012.76 1012.85 1013.08 1013.61 1013.91 1014.12 1014.45 1015.07 1015.84 1016.56 1017.20 1017.79 1018.16 1018.41 1018.77 1019.48 1019.94 1020.50 1020.99
1019.48 1018.84 1018.12 1017.47 1016.88 1016.50 1016.31 1015.86 1015.48 1014.89 1014.39 1014.13 1013.78 1013.94 1013.62 1013.21 1013.04 1012.60 1011.67 1012.05 1012.47 1012.76 1012.75 1012.60 1012.68 1012.96 1013.43 1013.66 1014.36 1014.75 1015.08 1015.42 1015.98 1016.65 1017.27 1017.72 1018.19 1018.50 1019.13 1019.49 1020.23 1020.84 1021.46
1019.54 1018.73 1017.99 1017.31 1016.83 1016.39 1015.95 1015.77 1015.35 1014.81 1014.39 1013.99 1013.78 1013.50 1013.90 1013.95 1013.02 1012.59 1012.33 1012.34 1012.81 1012.90 1013.30 1012.89 1012.92 1013.18 1013.69 1014.27 1014.65 1015.01 1015.53 1016.02 1016.41 1016.77 1017.36 1017.79 1018.31 1018.70 1019.15 1019.74 1020.30 1020.96 1021.63
1019.60 1018.62 1017.68 1016.96 1016.48 1016.18 1015.93 1015.50 1014.93 1014.33 1014.00 1013.71 1013.59 1013.59 1013.33 1013.37 1013.19 1012.77 1012.98 1012.83 1013.01 1012.90 1013.70 1014.13 1013.97 1013.83 1014.43 1015.20 1015.55 1015.71 1016.07 1016.41 1016.76 1016.99 1017.49 1017.90 1018.55 1019.04 1019.68 1020.35 1020.68 1021.04 1021.78
1019.71 1018.58 1017.60 1016.70 1016.22 1016.05 1015.94 1015.70 1015.42 1014.87 1014.49 1014.36 1013.72 1013.40 1013.13 1013.11 1013.10 1013.17 1013.48 1013.52 1013.46 1013.41 1014.47 1014.82 1014.95 1014.98 1015.29 1015.80 1016.27 1016.45 1016.70 1017.04 1017.23 1017.47 1017.91 1018.46 1018.99 1019.67 1020.28 1020.78 1020.96 1021.59 1022.24
1019.14 1018.23 1017.27 1016.37 1015.99 1015.92 1015.94 1015.76 1015.63 1015.45 1015.35 1015.22 1014.82 1014.36 1013.77 1013.56 1013.58 1013.65 1013.86 1014.28 1014.43 1014.60 1015.23 1015.64 1015.99 1016.28 1016.60 1016.97 1017.24 1017.45 1017.58 1017.99 1018.28 1018.48 1018.78 1019.16 1019.63 1020.18 1020.79 1021.18 1021.51 1022.04 1022.62
1018.86 1017.76 1016.83 1016.16 1015.88 1015.77 1015.97 1016.09 1016.06 1015.92 1015.97 1015.92 1015.60 1015.23 1015.17 1014.81 1014.75 1014.93 1015.00 1015.50 1016.05 1016.55 1016.93 1017.07 1017.34 1017.71 1018.13 1018.37 1018.39 1018.63 1018.81 1019.27 1019.56 1019.77 1020.05 1020.39 1020.65 1020.90 1021.33 1021.82 1022.28 1022.75 1023.10
1018.31 1017.47 1016.67 1016.27 1015.97 1015.99 1016.08 1016.41 1016.66 1016.60 1016.70 1016.75 1016.64 1016.59 1016.33 1016.09 1016.43 1016.93 1017.17 1017.40 1017.80 1018.21 1018.43 1018.73 1019.05 1019.24 1019.53 1019.56 1019.74 1019.78 1019.95 1020.30 1020.79 1020.97 1021.27 1021.47 1021.73 1021.89 1022.30 1022.59 1023.14 1023.53 1023.68
1018.08 1017.47 1016.86 1016.55 1016.29 1016.30 1016.48 1016.68 1017.15 1017.40 1017.58 1017.56 1017.32 1017.03 1017.10 1017.47 1018.15 1018.53 1018.91 1019.27 1019.46 1019.78 1020.14 1020.27 1020.51 1020.68 1020.84 1020.76 1020.68 1020.83 1021.09 1021.45 1021.63 1021.77 1021.98 1022.28 1022.52 1023.15 1023.12 1023.28 1023.84 1024.28 1024.37
1018.04 1017.58 1017.12 1016.90 1016.77 1016.80 1017.09 1017.28 1017.69 1018.11 1018.32 1018.26 1018.35 1018.41 1018.39 1018.79 1019.37 1019.92 1020.47 1020.89 1021.12 1021.33 1021.45 1021.45 1021.64 1021.88 1022.04 1021.77 1021.76 1021.71 1021.79 1022.06 1022.16 1022.41 1022.71 1023.10 1023.38 1023.65 1023.85 1024.14 1024.38 1024.66 1024.66
1018.27 1017.91 1017.73 1017.48 1017.40 1017.48 1017.76 1017.91 1018.33 1018.85 1019.28 1019.29 1019.21 1019.50 1019.73 1020.06 1020.57 1021.19 1021.66 1021.89 1021.93 1022.01 1022.16 1022.23 1022.32 1022.57 1022.57 1022.65 1022.70 1022.47 1022.37 1022.53 1022.73 1023.11 1023.19 1023.57 1023.85 1024.02 1024.17 1024.63 1024.68 1024.70 1024.71
1018.72 1018.60 1018.54 1018.37 1018.30 1018.48 1018.66 1018.93 1019.37 1019.82 1020.20 1020.36 1020.39 1020.62 1020.98 1021.32 1021.71 1022.13 1022.43 1022.60 1022.64 1022.54 1022.35 1022.39 1022.47 1022.53 1022.61 1022.83 1022.83 1022.79 1022.72 1022.62 1022.77 1022.95 1023.21 1023.74 1023.85 1024.07 1024.23 1024.37 1024.44 1024.46 1024.51
1019.41 1019.38 1019.37 1019.40 1019.47 1019.55 1019.60 1019.89 1020.29 1020.78 1021.09 1021.27 1021.44 1021.58 1021.88 1022.08 1022.36 1022.63 1022.79 1022.95 1022.83 1022.71 1022.53 1022.49 1022.52 1022.52 1022.55 1022.58 1022.60 1022.55 1022.43 1022.29 1022.52 1022.73 1023.05 1023.35 1023.94 1024.01 1024.09 1024.15 1024.31 1024.32 1024.25
1020.39 1020.43 1020.31 1020.43 1020.40 1020.53 1020.83 1021.03 1021.19 1021.39 1021.67 1021.95 1022.12 1022.25 1022.46 1022.70 1022.82 1022.81 1022.89 1023.03 1023.05 1022.86 1022.85 1022.76 1022.63 1022.58 1022.56 1022.46 1022.38 1022.23 1022.03 1021.85 1021.91 1022.02 1022.46 1023.03 1023.70 1023.73 1023.81 1023.80 1024.00 1024.09 1024.03
Wind_Speed
6 6 7 6 5 5 6 6 7 6 7 8 9 9 11 10 9 10 13 13 13 13 13 14 15 14 11 9 9 10 11 11 14 5 2 4 10 12 11 11 11 11 9
7 7 7 6 6 6 6 6 6 8 6 8 8 9 9 10 10 12 13 12 13 12 12 13 14 10 13 12 9 12 12 12 11 15 2 3 4 12 9 12 9 8 8
6 7 8 8 7 7 7 7 7 7 7 7 7 9 11 11 11 12 14 13 13 14 14 14 15 14 13 10 10 10 9 8 8 4 4 2 2 6 4 5 8 8 6
7 7 7 8 8 8 7 7 7 7 7 7 7 8 9 10 10 11 10 12 12 12 12 12 13 14 14 12 10 11 7 8 7 6 4 4 3 3 5 7 6 5 6
10 10 10 9 8 8 8 7 7 7 7 7 7 8 7 9 8 11 10 12 11 10 9 9 9 11 13 12 8 8 9 8 7 9 4 3 4 4 9 7 8 5 3
10 8 8 8 8 7 7 7 7 8 7 6 7 7 7 7 12 16 12 8 9 10 10 7 6 6 8 13 17 17 16 12 12 9 7 8 8 6 6 7 5 4 4
7 8 7 7 9 9 8 8 8 7 6 7 7 6 7 6 12 13 14 7 7 8 8 6 5 5 7 8 16 19 19 21 18 12 11 8 7 8 9 7 3 4 4
9 6 6 8 8 9 9 7 8 6 6 6 7 6 5 5 10 12 12 7 6 7 7 6 7 7 9 9 9 8 8 8 8 5 7 8 6 10 8 6 7 6 3
9 10 10 9 10 9 8 8 7 4 6 5 4 4 5 6 10 10 9 4 6 6 5 5 6 7 11 17 9 9 6 4 9 11 11 13 13 15 11 8 7 7 3
8 10 9 9 8 8 10 8 3 2 7 6 6 4 5 5 7 8 9 3 4 3 1 3 9 8 13 17 8 9 8 7 7 8 7 9 8 10 16 7 7 7 3
7 8 7 6 8 8 8 5 4 4 4 5 5 4 5 4 5 9 10 3 3 2 2 1 2 11 11 14 10 8 9 9 11 7 5 5 5 5 5 5 6 5 4
8 8 8 6 6 6 7 5 5 4 5 5 5 4 2 5 6 7 9 5 7 3 3 3 3 10 10 12 10 12 14 11 6 5 5 4 3 5 4 4 4 3 2
12 10 9 10 6 5 5 7 5 3 4 4 4 5 4 3 4 6 5 9 8 2 1 3 6 7 7 10 10 11 10 6 6 5 5 4 4 3 5 4 6 8 7
10 12 11 10 11 7 4 3 4 4 3 3 4 5 4 2 3 4 1 4 4 2 1 1 2 2 2 6 6 6 4 5 5 5 3 2 3 3 2 3 3 3 3
9 10 11 9 7 6 4 4 3 4 4 2 3 2 1 4 3 5 4 4 2 3 2 2 2 3 4 5 4 4 4 4 3 3 3 3 2 3 2 2 2 2 2
9 8 8 7 5 4 3 4 6 3 6 5 4 3 2 6 4 3 6 8 6 8 4 3 3 4 5 3 3 3 2 2 1 2 2 2 2 2 3 2 2 2 2
8 9 9 8 4 2 2 1 1 4 11 19 8 3 2 3 3 2 4 5 6 7 3 2 2 3 2 3 2 2 2 3 2 3 2 2 3 3 3 2 2 2 1
8 12 9 6 3 2 2 1 1 1 1 3 9 14 18 11 7 6 9 8 5 6 4 4 5 5 4 4 4 3 3 4 3 3 3 3 3 3 2 1 2 2 2
8 7 6 4 3 3 2 1 1 2 2 2 3 6 9 14 17 18 17 6 4 5 5 6 5 5 4 4 4 4 4 3 3 3 3 2 2 2 2 2 2 3 3
7 8 6 3 1 3 3 3 2 3 3 2 3 3 4 4 6 6 7 6 6 5 5 5 5 5 5 5 4 3 4 4 3 3 2 2 2 2 2 2 1 2 2
4 3 4 1 2 2 3 4 3 3 2 3 5 7 13 7 5 6 5 6 5 5 5 4 4 4 3 3 4 4 4 2 2 2 2 2 3 2 1 2 2 2 3
3 2 1 1 2 3 3 4 4 3 2 4 4 7 13 6 6 5 5 5 4 4 3 3 4 3 3 3 3 3 3 3 3 3 3 2 2 2 2 2 2 2 2
3 1 2 2 3 4 4 4 4 4 3 3 4 4 5 5 5 5 4 3 3 3 2 3 3 3 2 2 1 2 3 1 1 3 3 2 2 2 2 2 2 2 2
3 3 3 3 3 4 4 5 5 5 4 4 4 4 4 4 4 4 3 2 2 2 2 2 2 2 1 1 1 0 1 1 2 3 4 3 2 2 2 1 2 3 2
4 4 4 4 4 4 5 5 5 4 3 3 3 3 3 3 3 2 1 1 1 2 3 2 1 2 2 3 3 4 4 4 2 4 3 3 3 4 3 2 2 2 2
5 5 5 4 5 5 4 3 3 3 3 2 2 2 2 1 0 0 1 2 2 2 3 3 3 4 5 4 6 6 6 6 5 6 5 4 4 3 3 3 4 3 3
Wind_Direction
335 312 297 289 274 261 250 242 231 232 214 216 213 214 217 216 215 225 235 239 233 230 228 229 229 227 231 221 214 219 224 221 241 222 164 160 190 198 194 188 193 203 212
323 311 307 312 300 288 272 263 242 241 224 227 218 223 222 225 224 227 233 230 234 234 235 232 233 227 229 226 215 217 221 219 231 246 165 153 168 195 184 178 185 201 200
338 338 326 317 318 301 292 281 263 255 244 231 221 223 228 227 228 226 230 233 233 239 235 230 234 227 228 224 216 220 217 212 209 164 157 147 131 172 155 182 183 184 186
345 341 342 331 320 309 297 291 285 277 267 254 236 232 227 229 224 228 228 233 235 236 236 234 233 231 230 227 218 214 198 185 180 185 167 155 149 166 160 163 176 193 175
350 349 339 325 319 316 312 301 286 276 271 269 261 242 228 225 224 219 215 228 233 239 238 238 235 232 230 225 201 199 183 192 190 194 177 154 160 156 178 175 190 166 176
337 330 327 328 326 320 312 306 298 289 275 263 260 259 255 244 235 225 224 225 229 234 240 230 227 222 228 226 215 206 195 194 198 190 183 184 180 167 163 179 139 140 174
318 318 322 329 327 324 317 319 315 302 295 282 268 250 249 246 251 247 238 234 233 231 231 219 213 209 207 208 220 215 215 216 204 188 182 177 154 173 157 153 141 145 184
324 324 320 326 325 320 318 317 317 311 304 299 289 275 264 259 260 258 250 241 240 244 231 216 219 198 198 196 199 204 199 198 188 160 160 145 142 158 160 145 153 120 89
328 330 329 325 320 318 318 319 317 309 308 294 271 283 253 261 265 258 252 224 247 246 227 208 214 211 211 205 186 180 163 120 140 140 138 148 149 144 144 132 158 168 166
326 317 315 312 306 308 314 309 272 239 294 295 298 286 285 277 293 283 268 168 239 257 271 202 209 206 217 213 185 160 158 151 147 139 128 138 143 162 163 167 156 172 125
302 301 301 297 303 299 307 288 288 318 305 297 300 306 304 292 296 297 272 178 197 167 191 243 227 232 226 209 167 166 163 142 143 119 121 121 126 152 169 171 174 168 158
307 305 308 305 309 310 304 299 318 318 297 296 307 300 303 309 301 296 292 238 169 161 185 169 229 239 233 200 161 167 154 139 119 124 130 122 167 187 179 144 148 125 114
317 313 312 316 307 308 311 313 311 311 313 319 307 304 314 322 308 315 305 160 153 168 161 212 228 242 217 188 161 157 126 131 129 132 150 166 191 176 117 92 78 88 76
307 310 310 309 316 315 306 293 305 308 300 296 307 305 309 299 316 314 52 126 132 84 286 240 214 184 178 124 135 134 117 118 137 148 164 124 119 128 125 135 133 145 111
296 299 302 299 290 295 283 270 263 260 233 277 286 253 327 304 278 321 105 95 102 104 45 36 83 87 97 97 109 111 108 127 148 146 150 152 132 134 115 116 99 109 122
297 290 285 285 280 282 297 314 346 312 320 289 263 217 222 263 306 351 123 125 125 116 44 25 62 78 83 79 89 85 85 127 96 111 103 113 122 117 119 108 101 116 143
285 289 285 273 262 257 270 171 348 357 46 37 42 31 114 96 109 128 138 135 135 95 80 86 72 77 85 77 78 74 81 53 56 73 96 106 110 100 125 144 109 122 133
280 275 275 262 231 203 200 181 133 62 26 344 20 37 50 70 66 78 92 67 43 46 46 56 55 50 44 52 48 43 53 46 46 57 69 83 101 124 119 128 135 137 120
291 289 280 255 223 176 141 99 80 96 63 14 344 24 23 57 65 59 63 68 74 57 48 59 51 48 46 51 52 54 57 54 46 55 54 54 71 91 75 103 115 147 138
285 286 287 253 184 153 125 105 89 76 68 42 35 356 348 38 48 45 43 49 57 53 46 52 44 48 46 46 45 48 59 48 43 53 64 71 74 67 110 125 135 156 180
288 298 313 336 48 81 109 114 97 84 83 65 54 59 71 78 69 57 52 46 51 49 42 50 43 50 37 43 48 50 65 77 82 72 62 51 59 61 52 71 120 120 120
290 291 353 56 75 82 89 94 96 94 80 88 66 50 71 67 65 64 58 48 43 44 32 43 55 45 27 43 51 66 64 51 29 42 45 53 76 87 109 98 117 128 139
319 6 8 46 69 86 82 78 82 79 68 65 71 67 56 64 66 62 59 41 48 56 28 45 61 48 33 35 13 83 92 72 213 148 114 127 144 154 153 154 153 159 169
19 33 43 46 57 74 79 76 73 65 64 56 58 62 64 62 61 65 59 23 30 24 49 52 63 55 9 355 337 244 218 220 159 160 152 148 171 148 130 148 186 202 179
34 43 50 52 59 64 76 76 76 71 66 63 64 66 63 62 66 52 26 11 2 349 352 356 334 321 312 313 308 297 276 300 195 169 140 132 159 162 168 176 187 203 178
45 45 51 49 53 53 50 65 76 77 72 63 52 57 67 66 256 268 326 330 317 305 297 287 279 271 271 260 258 254 243 247 232 201 174 159 170 188 178 197 196 192 192